Zurück zum Katalog

SKYLINK-2

AktivKommunikationSSO
NORAD 62672·PAYLOAD·🇹🇷 Turkey
Dieser Satellitenname wurde noch nicht durch offizielle Quellen bestätigt.

Gestartet Jan 14, 2025 von Vandenberg Space Force Base

Loading…

Nächste Überflüge (nächste 24 Stunden)

TLE

AktuellSource: Space-Track

Epoche: Sep 14, 2026, 12:04 UTC

1 62672U 25009BR  26257.50341754  .00003248  00000-0  13888-3 0  9998
2 62672  97.3893 335.2522 0005334  38.2106 321.9508 15.23535313149981

Verfolge SKYLINK-2 in Echtzeit mit AllMySat

Download on the App Store